Estación Meteorológica Peña el Pijo (Robertgarden) [ 07/11/20 02:30:34 CEST ]

Fecha Hora Presion(HPa) Temp (°C) Humedad % Rocio (°C) Viento ( m/s) Direccion Lluvia 1Hora(mm) Lluvia 24H(mm) LLuvia Total(mm)
2019-Dec-10 01:09:13 1017.400 - - - - S     39.88
2019-Dec-10 02:09:58 1017.000 - - - - S     39.88
2019-Dec-10 03:13:04 1017.000 - - - - S     39.88
2019-Dec-10 04:09:11 1016.800 - - - - S     39.88
2019-Dec-10 05:09:17 1016.900 - - - - S     39.88
2019-Dec-10 06:09:21 1016.700 - - - - S     39.88
2019-Dec-10 07:09:07 1016.400 - - - - S     39.88
2019-Dec-10 08:09:06 1016.500 - - - - S     39.88
2019-Dec-10 09:09:02 1016.300 - - - - S     39.88
2019-Dec-10 10:09:12 1016.600 - - - - S     39.88
2019-Dec-10 11:09:37 1016.400 - - - - S     39.88
2019-Dec-10 12:09:07 1015.800 - - - - S     39.88
2019-Dec-10 13:09:20 1015.300 - - - - S     39.88
2019-Dec-10 14:09:21 1014.500 - - - - S     39.88
2019-Dec-10 15:09:18 1013.900 - - - - S     39.88
2019-Dec-10 16:09:36 1013.400 - - - - S     39.88
2019-Dec-10 17:09:05 1013.600 - - - - S     39.88
2019-Dec-10 18:09:01 1013.700 - - - - S     39.88
2019-Dec-10 19:09:12 1014.100 - - - - S     39.88
2019-Dec-10 20:09:13 1014.300 - - - - S     39.88
2019-Dec-10 21:09:05 1014.200 - - - - S     39.88
2019-Dec-10 22:09:31 1013.700 - - - - S     39.88
2019-Dec-10 23:09:28 1013.900 - - - - S     39.88

Temperatura Máxima:    Temperatura Mínima:
Presión Máxima:1017.400 Hpa    Presión Mínima:1013.400 Hpa


Volver